This is the latest recevied weather packets stored in our database for station/object K7ZQU-7. If no packets are shown the sender has not sent any weather packets the latest 10 day(s).
| Time | Temp. | Humidity | Pressure | Rain* | Wind** | Luminosity | Snow |
|---|---|---|---|---|---|---|---|
| 1777980463 | 7.78° C | 90% | 1012.1 hPa | 0 mm | 0.45 m/s, 318° | - | - |
| 1777980164 | 7.78° C | 91% | 1012.1 hPa | 0 mm | 0.89 m/s, 304° | - | - |
| 1777979865 | 7.78° C | 91% | 1012.1 hPa | 0 mm | 0 m/s | - | - |
| 1777979264 | 7.78° C | 90% | 1012.1 hPa | 0 mm | 1.34 m/s, 297° | - | - |
| 1777978965 | 7.78° C | 90% | 1012.1 hPa | 0 mm | 1.79 m/s, 287° | - | - |
| 1777978368 | 7.78° C | 89% | 1012 hPa | 0 mm | 0.89 m/s, 328° | - | - |
| 1777978066 | 7.78° C | 89% | 1012 hPa | 0 mm | 1.34 m/s, 301° | - | - |
| 1777977767 | 7.78° C | 89% | 1012 hPa | 0 mm | 0.45 m/s, 288° | - | - |
| 1777977468 | 7.78° C | 89% | 1012 hPa | 0 mm | 0.89 m/s, 315° | - | - |
| 1777977169 | 8.33° C | 89% | 1012 hPa | 0 mm | 1.34 m/s, 276° | - | - |
| 1777976870 | 8.33° C | 89% | 1012.1 hPa | 0 mm | 0.89 m/s, 330° | - | - |
| 1777976568 | 8.33° C | 89% | 1012.1 hPa | 0 mm | 0.89 m/s, 284° | - | - |
| 1777976269 | 8.33° C | 89% | 1012.1 hPa | 0 mm | 1.34 m/s, 269° | - | - |
| 1777975372 | 8.33° C | 89% | 1012.1 hPa | 0 mm | 2.24 m/s, 262° | - | - |
| 1777975070 | 8.33° C | 89% | 1012.1 hPa | 0 mm | 2.24 m/s, 318° | - | - |
| 1777974771 | 8.33° C | 89% | 1012.1 hPa | 0 mm | 1.79 m/s, 284° | - | - |
| 1777974173 | 8.33° C | 90% | 1012 hPa | 0 mm | 0.89 m/s, 295° | - | - |
| 1777973573 | 8.33° C | 90% | 1012.1 hPa | 0 mm | 0.45 m/s, 290° | - | - |
| 1777973274 | 8.33° C | 91% | 1012.1 hPa | 0 mm | 0 m/s | - | - |
| 1777972975 | 8.33° C | 90% | 1012.1 hPa | 0 mm | 0.45 m/s, 301° | - | - |
| 1777972676 | 8.33° C | 90% | 1012.1 hPa | 0 mm | 0.89 m/s, 321° | - | - |
| 1777971776 | 8.33° C | 90% | 1012.1 hPa | 0 mm | 0.89 m/s, 312° | - | - |
| 1777971477 | 8.33° C | 90% | 1012.1 hPa | 0 mm | 0 m/s | - | - |
| 1777971178 | 8.33° C | 89% | 1012.2 hPa | 0 mm | 0.89 m/s, 307° | - | - |
| 1777970578 | 8.33° C | 89% | 1012.4 hPa | 0 mm | 0 m/s | - | - |
* Rain latest hour (hover to see other rain measurements)
** Current wind speed in m/s (hover to see current wind gust speed)